Home > Weather > Split > Past weeks

Flag for Croatia Weather for the Past 2 Weeks in Split, Croatia

Now
45 °F

Passing clouds.


Feels Like: 45 °F
Forecast: 40 / 51 °F
Wind: 2 mph from Northwest

Location: Split/Marjan

Current Time: Feb 11, 2016 at 12:17:17 AM

Latest Report: Feb 10, 2016 at 10:00 PM


Visibility: 13 mi

Pressure: 29.69 "Hg

Humidity: 64%

Dew point: 34 °F

Location of SplitLocation

Historic Weather in Split — Graph

°F

Split Temperature Yesterday

Maximum temperature yesterday: 55 °F (at 8:00 AM)
Minimum temperature yesterday: 45 °F (at 10:00 PM)
Average temperature yesterday: 51 °F

High & Low Weather Summary for the Past Weeks

 TemperatureHumidityPressure
High60 °F (Feb 2, 3:00 PM)93% (Feb 10, 9:00 AM)30.53 "Hg (Feb 10, 9:00 AM)
Low40 °F (Feb 4, 9:00 AM)31% (Feb 5, 11:00 AM)29.35 "Hg (Feb 10, 7:00 AM)
Average52 °F70%30.19 "Hg
* Reported Jan 27 5:00 AM — Feb 10 10:00 PM, Split, Weather by CustomWeather, © 2016

Note: Actual official high and low records may vary slightly from our data, if they occured in-between our weather recording intervals... More about our weather records

Advertising

Split Weather History for the Previous 24 Hours

 ConditionsComfort  
Time TempWeatherWind HumidityBarometerVisibility
10:00 PM
Wed, Feb 10
45 °FPassing clouds.2 mph64%29.69 "Hg12 mi
9:00 PM47 °FPassing clouds.2 mph65%29.67 "Hg12 mi
8:00 PM47 °FPassing clouds.5 mph67%29.62 "Hg12 mi
7:00 PM46 °FOvercast.3 mph69%29.59 "Hg12 mi
4:00 PM50 °FPartly sunny.1 mph56%29.47 "Hg22 mi
3:00 PM50 °FOvercast.3 mph60%29.47 "Hg19 mi
2:00 PM52 °FOvercast.1 mph53%29.47 "Hg19 mi
1:00 PM53 °FOvercast.2 mph59%29.44 "Hg19 mi
12:00 PM54 °FOvercast.1 mph64%29.41 "Hg12 mi
11:00 AM53 °FOvercast.1 mph62%29.38 "Hg12 mi
10:00 AM52 °FOvercast.5 mph67%29.38 "Hg12 mi
9:00 AM55 °FOvercast.2 mph93%29.38 "Hg12 mi
8:00 AM55 °FOvercast.3 mph89%29.38 "Hg12 mi
7:00 AM53 °FOvercast.13 mph90%29.35 "Hg6 mi
6:00 AM53 °FOvercast.14 mph90%29.38 "Hg12 mi
4:00 AM52 °FOvercast.12 mph91%29.47 "Hg12 mi
Weather by CustomWeather, © 2016

See weather overviewHow to use our weather pages